Barcelona, Spain

1:00 PM CEST on August 28, 2016 (GMT +0200)
El Prat

Weather History for LEBL - November, 2012

Change the Weather History Date:

Monday, November 12, 2012

  Actual Average Record
Temperature  
Mean Temperature 56 °F -  
Max Temperature 65 °F 58 °F 70 °F (2013)
Min Temperature 48 °F 45 °F 44 °F (2001)
Degree Days  
Heating Degree Days 8    
Growing Degree Days 6 (Base 50)    
Moisture  
Dew Point 45 °F    
Average Humidity 69    
Maximum Humidity 82    
Minimum Humidity 48    
Precipitation  
Precipitation 0.00 in 0.08 in - ()
Sea Level Pressure  
Sea Level Pressure 30.11 in    
Wind  
Wind Speed 11 mph ()    
Max Wind Speed 17 mph    
Max Gust Speed 29 mph    
Visibility 8.0 miles    
Events      
Averages and records for this station are not official NWS values.
T = Trace of Precipitation, MM = Missing Value Source: Averaged Metar Reports

Daily Weather History Graph

Daily Weather History Graph

Search for Another Location

Airport or City:

Trip Planner

Search our weather history database for the weather conditions in past years. The results will help you decide how hot, cold, wet, or windy it might be!

Date:

Astronomy

Nov. 12, 2012 Rise Set
Actual Time 7:36 AM CET 5:34 PM CET
Civil Twilight 7:07 AM CET 6:04 PM CET
Nautical Twilight 6:33 AM CET 6:37 PM CET
Astronomical Twilight 6:01 AM CET 7:09 PM CET
Moon 5:42 AM CET (11/12) 4:29 PM CET (11/12)
Length of Visible Light 10h 57m
Length of Day
9h 58m
Waning Crescent, 3% of the Moon is Illuminated
Nov 12
Waning Crescent
Nov 13
New
Nov 20
First Quarter
Nov 28
Full
Dec 6
Last Quarter

Hourly Weather History & Observations

Time (CET) Temp. Dew Point Humidity Pressure Visibility Wind Dir Wind Speed Gust Speed Precip Events Conditions
12:00 AM 53.6 °F 48.2 °F 82% 30.01 in 6.2 mi NNW 11.5 mph - N/A   Partly Cloudy
12:30 AM 51.8 °F 46.4 °F 82% 30.01 in 6.2 mi NNW 11.5 mph - N/A   Partly Cloudy
1:00 AM 52 °F 45 °F 69% 30.03 in 19 mi North 13.8 mph - -   Scattered Clouds
1:00 AM 53.6 °F 46.4 °F 77% 30.01 in 6.2 mi NNW 12.7 mph - N/A   Partly Cloudy
1:30 AM 51.8 °F 46.4 °F 82% 30.01 in 6.2 mi NNW 12.7 mph - N/A   Partly Cloudy
2:00 AM 51.8 °F 46.4 °F 82% 30.04 in 6.2 mi NNW 11.5 mph - N/A   Partly Cloudy
2:30 AM 51.8 °F 46.4 °F 82% 30.04 in 6.2 mi NNW 13.8 mph - N/A   Partly Cloudy
3:00 AM 51.8 °F 44.6 °F 76% 30.04 in 6.2 mi NNW 10.4 mph - N/A   Partly Cloudy
3:30 AM 51.8 °F 44.6 °F 76% 30.04 in 6.2 mi North 11.5 mph - N/A   Partly Cloudy
4:00 AM 51.8 °F 44.6 °F 76% 30.04 in 6.2 mi NNW 13.8 mph - N/A   Partly Cloudy
4:30 AM 50.0 °F 44.6 °F 82% 30.04 in 6.2 mi NNW 11.5 mph - N/A   Partly Cloudy
5:00 AM 50.0 °F 44.6 °F 82% 30.06 in 6.2 mi NNW 12.7 mph - N/A   Partly Cloudy
5:30 AM 50.0 °F 44.6 °F 82% 30.06 in 6.2 mi NNW 13.8 mph - N/A   Partly Cloudy
6:00 AM 50.0 °F 42.8 °F 76% 30.06 in 6.2 mi NNW 13.8 mph - N/A   Partly Cloudy
6:30 AM 50.0 °F 42.8 °F 76% 30.09 in 6.2 mi NNW 11.5 mph - N/A   Partly Cloudy
7:00 AM 49 °F 42 °F 68% 30.11 in 19 mi North 10.4 mph - -   Scattered Clouds
7:00 AM 50.0 °F 42.8 °F 76% 30.09 in 6.2 mi NNW 12.7 mph - N/A   Partly Cloudy
7:30 AM 50.0 °F 42.8 °F 76% 30.09 in 6.2 mi NNW 13.8 mph 25.3 mph N/A   Partly Cloudy
8:00 AM 50.0 °F 42.8 °F 76% 30.12 in 6.2 mi NNW 15.0 mph - N/A   Partly Cloudy
8:30 AM 50.0 °F 44.6 °F 82% 30.12 in 6.2 mi NNW 15.0 mph - N/A   Partly Cloudy
9:00 AM 51.8 °F 44.6 °F 76% 30.12 in - NNW 17.3 mph 28.8 mph N/A   Clear
9:30 AM 51.8 °F 44.6 °F 76% 30.15 in - NNW 12.7 mph - N/A   Clear
10:00 AM 53.6 °F 44.6 °F 72% 30.15 in - NNW 16.1 mph - N/A   Clear
10:30 AM 55.4 °F 44.6 °F 67% 30.15 in - NNW 17.3 mph - N/A   Clear
1:30 PM 62.6 °F 46.4 °F 55% 30.15 in - West 4.6 mph - N/A   Clear
2:30 PM 64.4 °F 48.2 °F 56% 30.15 in - SSW 4.6 mph - N/A   Clear
3:00 PM 62.6 °F 48.2 °F 59% 30.15 in - NW 5.8 mph - N/A   Clear
3:30 PM 64.4 °F 44.6 °F 49% 30.12 in - NNW 9.2 mph - N/A   Clear
4:00 PM 64.4 °F 44.6 °F 49% 30.12 in - NW 9.2 mph - N/A   Clear
4:30 PM 64.4 °F 44.6 °F 49% 30.12 in - NNW 8.1 mph - N/A   Clear
5:00 PM 62.6 °F 46.4 °F 55% 30.12 in - NW 9.2 mph - N/A   Clear
5:30 PM 60.8 °F 44.6 °F 55% 30.15 in - NW 11.5 mph - N/A   Clear
6:00 PM 59.0 °F 44.6 °F 59% 30.15 in - WNW 8.1 mph - N/A   Clear
6:30 PM 59.0 °F 44.6 °F 59% 30.15 in - NW 8.1 mph - N/A   Clear
7:00 PM 57 °F 43 °F 48% 30.18 in 19 mi NNW 6.9 mph - -  
7:00 PM 59.0 °F 44.6 °F 59% 30.18 in - NW 10.4 mph - N/A   Clear
7:30 PM 57.2 °F 44.6 °F 63% 30.18 in - NNW 11.5 mph - N/A   Clear
8:00 PM 55.4 °F 44.6 °F 67% 30.18 in - NNW 12.7 mph - N/A   Clear
8:30 PM 55.4 °F 42.8 °F 63% 30.18 in - NNW 13.8 mph 26.5 mph N/A   Clear
9:00 PM 55.4 °F 42.8 °F 63% 30.18 in - NNW 16.1 mph - N/A   Clear
9:30 PM 53.6 °F 42.8 °F 67% 30.15 in - NNW 15.0 mph - N/A   Clear
10:00 PM 53.6 °F 42.8 °F 67% 30.18 in - NNW 13.8 mph - N/A   Clear
10:30 PM 53.6 °F 44.6 °F 72% 30.18 in - NNW 11.5 mph 26.5 mph N/A   Clear
11:00 PM 53.6 °F 44.6 °F 72% 30.18 in - NNW 12.7 mph - N/A   Clear
11:30 PM 53.6 °F 44.6 °F 72% 30.21 in - NNW 15.0 mph - N/A   Clear